Johnstown, PA

8:42 AM EST on January 18, 2017 (GMT -0500)
Johnstown-Cambria County

Weather History for KJST - November, 2011

Change the Weather History Date:

Tuesday, November 8, 2011

  Actual Average Record
Temperature  
Mean Temperature 54 °F 43 °F  
Max Temperature 64 °F 49 °F 77 °F (1945)
Min Temperature 44 °F 36 °F 20 °F (1930)
Degree Days  
Heating Degree Days 11 22  
Month to date heating degree days 167  
Since 1 July heating degree days 860  
Cooling Degree Days 0 0  
Month to date cooling degree days 0  
Year to date cooling degree days 382  
Growing Degree Days 4 (Base 50)    
Moisture  
Dew Point 33 °F    
Average Humidity 50    
Maximum Humidity 71    
Minimum Humidity 27    
Precipitation  
Precipitation 0.00 in 0.11 in 0.88 in (1943)
Month to date precipitation 0.98  
Year to date precipitation 28.33  
Sea Level Pressure  
Sea Level Pressure 30.23 in    
Wind  
Wind Speed 5 mph (South)    
Max Wind Speed 14 mph    
Max Gust Speed -    
Visibility 10 miles    
Events      
T = Trace of Precipitation, MM = Missing Value Source: NWS Daily Summary

Daily Weather History Graph

Daily Weather History Graph

Search for Another Location

Airport or City:

Trip Planner

Search our weather history database for the weather conditions in past years. The results will help you decide how hot, cold, wet, or windy it might be!

Date:

Astronomy

Nov. 08, 2011 Rise Set
Actual Time 6:52 AM EST 5:04 PM EST
Civil Twilight 6:24 AM EST 5:33 PM EST
Nautical Twilight 5:51 AM EST 6:05 PM EST
Astronomical Twilight 5:19 AM EST 6:37 PM EST
Moon 3:44 PM EST (11/8) 4:49 AM EST (11/8)
Length of Visible Light 11h 09m
Length of Day
10h 12m
Waxing Gibbous, 96% of the Moon is Illuminated
Nov 8
Waxing Gibbous
Nov 10
Full
Nov 18
Last Quarter
Nov 25
New
Dec 2
First Quarter

Hourly Weather History & Observations

Time (EST) Temp. Windchill Dew Point Humidity Pressure Visibility Wind Dir Wind Speed Gust Speed Precip Events Conditions
12:54 AM 48.9 °F - 35.1 °F 59% 30.28 in 10.0 mi SSW 6.9 mph - N/A   Clear
1:54 AM 46.0 °F 43.1 °F 35.1 °F 66% 30.28 in 10.0 mi SW 5.8 mph - N/A   Clear
2:54 AM 46.9 °F - 35.1 °F 63% 30.28 in 10.0 mi South 3.5 mph - N/A   Clear
3:54 AM 46.4 °F - 35.6 °F 66% 30.27 in 10.0 mi Calm Calm - N/A   Clear
4:54 AM 46.4 °F 44.3 °F 33.8 °F 62% 30.27 in 10.0 mi South 4.6 mph - N/A   Clear
5:54 AM 44.1 °F 41.5 °F 35.1 °F 71% 30.28 in 10.0 mi South 4.6 mph - N/A   Clear
6:54 AM 46.0 °F - 35.1 °F 66% 30.30 in 10.0 mi Calm Calm - N/A   Clear
7:54 AM 46.9 °F - 36.0 °F 66% 30.30 in 10.0 mi Calm Calm - N/A   Clear
8:54 AM 51.8 °F - 37.4 °F 58% 30.27 in 10.0 mi Calm Calm - N/A   Clear
9:54 AM 55.9 °F - 36.0 °F 47% 30.26 in 10.0 mi SSW 4.6 mph - N/A   Clear
10:54 AM 60.1 °F - 39.0 °F 46% 30.26 in 10.0 mi South 9.2 mph - N/A   Clear
11:54 AM 63.0 °F - 35.1 °F 35% 30.22 in 10.0 mi SSE 11.5 mph - N/A   Clear
12:54 PM 63.0 °F - 30.0 °F 29% 30.20 in 10.0 mi SSE 13.8 mph - N/A   Clear
1:54 PM 64.0 °F - 30.0 °F 28% 30.19 in 10.0 mi SSE 10.4 mph - N/A   Clear
2:54 PM 62.6 °F - 28.4 °F 27% 30.18 in 10.0 mi SSE 8.1 mph - N/A   Clear
3:54 PM 62.1 °F - 28.0 °F 28% 30.18 in 10.0 mi SE 9.2 mph - N/A   Clear
4:54 PM 57.0 °F - 28.9 °F 34% 30.18 in 10.0 mi SE 5.8 mph - N/A   Clear
5:54 PM 54.0 °F - 30.9 °F 41% 30.20 in 10.0 mi SE 6.9 mph - N/A   Clear
6:54 PM 53.1 °F - 33.1 °F 47% 30.20 in 10.0 mi SSE 9.2 mph - N/A   Clear
7:54 PM 50.0 °F - 33.1 °F 52% 30.22 in 10.0 mi South 6.9 mph - N/A   Clear
8:54 PM 50.0 °F - 33.1 °F 52% 30.21 in 10.0 mi South 4.6 mph - N/A   Clear
9:54 PM 50.0 °F - 33.1 °F 52% 30.20 in 10.0 mi SW 3.5 mph - N/A   Clear
10:54 PM 50.0 °F - 32.0 °F 50% 30.17 in 10.0 mi SW 4.6 mph - N/A   Clear
11:54 PM 50.0 °F - 32.0 °F 50% 30.15 in 10.0 mi South 4.6 mph - N/A   Clear